Location: Martley
(52.2333°N, 2.3667°W)
Time: 15:03:34
(UTC+00:00)

AQUARIUS - Pass Details

Date: 11 December 2019
Orbit: 650 x 653 km, 98.0° (Epoch: 27 January)

Event Time Altitude Azimuth Distance (km) Brightness Sun altitude
Rises 06:54:05 0° 13° (NNE) 2,989 7.5 -10.5°
Reaches altitude 10° 06:56:18 10° 13° (NNE) 2,073 6.6 -10.2°
Maximum altitude 07:00:49 80° 288° (WNW) 670 4.1 -9.6°
Drops below altitude 10° 07:05:19 10° 201° (SSW) 2,055 6.8 -9.0°
Sets 07:07:31 0° 200° (SSW) 2,961 7.6 -8.7°
